Time,TemperatureF,DewpointF,PressureIn,WindDirection,WindDirectionDegrees,WindSpeedMPH,WindSpeedGustMPH,Humidity,HourlyPrecipIn,Conditions,Clouds,dailyrainin,SoftwareType,DateUTC
2013-03-04 00:11:00,12.0,-99.9,-100.00,SSW,194,2.0,3.0,-999,-99.99,,,-99.99,,2013-03-04 06:11:00,
2013-03-04 00:22:00,12.0,-99.9,-100.00,SSW,194,2.0,3.0,-999,-99.99,,,-99.99,,2013-03-04 06:22:00,
2013-03-04 00:32:00,12.0,-99.9,-100.00,SSW,194,2.0,3.0,-999,-99.99,,,-99.99,,2013-03-04 06:32:00,
2013-03-04 00:40:00,9.0,-99.9,-100.00,SSW,203,4.0,4.0,-999,-99.99,,,-99.99,,2013-03-04 06:40:00,
2013-03-04 01:11:00,9.0,-99.9,-100.00,SSW,203,4.0,4.0,-999,-99.99,,,-99.99,,2013-03-04 07:11:00,
2013-03-04 01:22:00,9.0,-99.9,-100.00,SSW,203,4.0,4.0,-999,-99.99,,,-99.99,,2013-03-04 07:22:00,
2013-03-04 01:32:00,9.0,-99.9,-100.00,SSW,203,4.0,4.0,-999,-99.99,,,-99.99,,2013-03-04 07:32:00,
2013-03-04 01:40:00,7.0,-99.9,-100.00,South,176,3.0,5.0,-999,-99.99,,,-99.99,,2013-03-04 07:40:00,
2013-03-04 02:12:00,7.0,-99.9,-100.00,South,176,3.0,5.0,-999,-99.99,,,-99.99,,2013-03-04 08:12:00,
2013-03-04 02:22:00,7.0,-99.9,-100.00,South,176,3.0,5.0,-999,-99.99,,,-99.99,,2013-03-04 08:22:00,
2013-03-04 02:32:00,7.0,-99.9,-100.00,South,176,3.0,5.0,-999,-99.99,,,-99.99,,2013-03-04 08:32:00,
2013-03-04 02:40:00,6.0,-99.9,-100.00,South,191,3.0,5.0,-999,-99.99,,,-99.99,,2013-03-04 08:40:00,
2013-03-04 03:11:00,6.0,-99.9,-100.00,South,191,3.0,5.0,-999,-99.99,,,-99.99,,2013-03-04 09:11:00,
2013-03-04 03:22:00,6.0,-99.9,-100.00,South,191,3.0,5.0,-999,-99.99,,,-99.99,,2013-03-04 09:22:00,
2013-03-04 03:32:00,6.0,-99.9,-100.00,South,191,3.0,5.0,-999,-99.99,,,-99.99,,2013-03-04 09:32:00,
2013-03-04 03:40:00,7.0,-99.9,-100.00,South,186,3.0,4.0,-999,-99.99,,,-99.99,,2013-03-04 09:40:00,
2013-03-04 04:12:00,7.0,-99.9,-100.00,South,186,3.0,4.0,-999,-99.99,,,-99.99,,2013-03-04 10:12:00,
2013-03-04 04:22:00,7.0,-99.9,-100.00,South,186,3.0,4.0,-999,-99.99,,,-99.99,,2013-03-04 10:22:00,
2013-03-04 04:32:00,7.0,-99.9,-100.00,South,186,3.0,4.0,-999,-99.99,,,-99.99,,2013-03-04 10:32:00,
2013-03-04 04:40:00,6.0,-99.9,-100.00,South,185,3.0,5.0,-999,-99.99,,,-99.99,,2013-03-04 10:40:00,
2013-03-04 05:11:00,6.0,-99.9,-100.00,South,185,3.0,5.0,-999,-99.99,,,-99.99,,2013-03-04 11:11:00,
2013-03-04 05:22:00,6.0,-99.9,-100.00,South,185,3.0,5.0,-999,-99.99,,,-99.99,,2013-03-04 11:22:00,
2013-03-04 05:32:00,6.0,-99.9,-100.00,South,185,3.0,5.0,-999,-99.99,,,-99.99,,2013-03-04 11:32:00,
2013-03-04 05:40:00,4.0,-99.9,-100.00,SSW,211,4.0,5.0,-999,-99.99,,,-99.99,,2013-03-04 11:40:00,
2013-03-04 06:12:00,4.0,-99.9,-100.00,SSW,211,4.0,5.0,-999,-99.99,,,-99.99,,2013-03-04 12:12:00,
2013-03-04 06:22:00,4.0,-99.9,-100.00,SSW,211,4.0,5.0,-999,-99.99,,,-99.99,,2013-03-04 12:22:00,
2013-03-04 06:32:00,4.0,-99.9,-100.00,SSW,211,4.0,5.0,-999,-99.99,,,-99.99,,2013-03-04 12:32:00,
2013-03-04 06:40:00,4.0,-99.9,-100.00,SSW,196,1.0,4.0,-999,-99.99,,,-99.99,,2013-03-04 12:40:00,
2013-03-04 07:12:00,4.0,-99.9,-100.00,SSW,196,1.0,4.0,-999,-99.99,,,-99.99,,2013-03-04 13:12:00,
2013-03-04 07:22:00,4.0,-99.9,-100.00,SSW,196,1.0,4.0,-999,-99.99,,,-99.99,,2013-03-04 13:22:00,
2013-03-04 07:32:00,4.0,-99.9,-100.00,SSW,196,1.0,4.0,-999,-99.99,,,-99.99,,2013-03-04 13:32:00,
2013-03-04 07:40:00,8.0,-99.9,-100.00,West,272,3.0,5.0,-999,-99.99,,,-99.99,,2013-03-04 13:40:00,
2013-03-04 08:12:00,8.0,-99.9,-100.00,West,272,3.0,5.0,-999,-99.99,,,-99.99,,2013-03-04 14:12:00,
2013-03-04 08:22:00,8.0,-99.9,-100.00,West,272,3.0,5.0,-999,-99.99,,,-99.99,,2013-03-04 14:22:00,
2013-03-04 08:32:00,8.0,-99.9,-100.00,West,272,3.0,5.0,-999,-99.99,,,-99.99,,2013-03-04 14:32:00,
2013-03-04 08:40:00,22.0,-99.9,-100.00,NNE,16,1.0,6.0,-999,-99.99,,,-99.99,,2013-03-04 14:40:00,
2013-03-04 09:11:00,22.0,-99.9,-100.00,NNE,16,1.0,6.0,-999,-99.99,,,-99.99,,2013-03-04 15:11:00,
2013-03-04 09:22:00,22.0,-99.9,-100.00,NNE,16,1.0,6.0,-999,-99.99,,,-99.99,,2013-03-04 15:22:00,
2013-03-04 09:32:00,22.0,-99.9,-100.00,NNE,16,1.0,6.0,-999,-99.99,,,-99.99,,2013-03-04 15:32:00,
2013-03-04 09:40:00,27.0,-99.9,-100.00,NE,50,6.0,10.0,-999,-99.99,,,-99.99,,2013-03-04 15:40:00,
2013-03-04 10:11:00,27.0,-99.9,-100.00,NE,50,6.0,10.0,-999,-99.99,,,-99.99,,2013-03-04 16:11:00,
2013-03-04 10:22:00,27.0,-99.9,-100.00,NE,50,6.0,10.0,-999,-99.99,,,-99.99,,2013-03-04 16:22:00,
2013-03-04 10:32:00,27.0,-99.9,-100.00,NE,50,6.0,10.0,-999,-99.99,,,-99.99,,2013-03-04 16:32:00,
2013-03-04 10:40:00,35.0,-99.9,-100.00,ESE,117,5.0,12.0,-999,-99.99,,,-99.99,,2013-03-04 16:40:00,
2013-03-04 11:11:00,35.0,-99.9,-100.00,ESE,117,5.0,12.0,-999,-99.99,,,-99.99,,2013-03-04 17:11:00,
2013-03-04 11:22:00,35.0,-99.9,-100.00,ESE,117,5.0,12.0,-999,-99.99,,,-99.99,,2013-03-04 17:22:00,
2013-03-04 11:32:00,35.0,-99.9,-100.00,ESE,117,5.0,12.0,-999,-99.99,,,-99.99,,2013-03-04 17:32:00,
2013-03-04 11:40:00,36.0,-99.9,-100.00,ENE,71,10.0,14.0,-999,-99.99,,,-99.99,,2013-03-04 17:40:00,
2013-03-04 12:11:00,36.0,-99.9,-100.00,ENE,71,10.0,14.0,-999,-99.99,,,-99.99,,2013-03-04 18:11:00,
2013-03-04 12:22:00,36.0,-99.9,-100.00,ENE,71,10.0,14.0,-999,-99.99,,,-99.99,,2013-03-04 18:22:00,
2013-03-04 12:33:00,36.0,-99.9,-100.00,ENE,71,10.0,14.0,-999,-99.99,,,-99.99,,2013-03-04 18:33:00,
2013-03-04 12:40:00,33.0,-99.9,-100.00,NE,37,14.0,17.0,-999,-99.99,,,-99.99,,2013-03-04 18:40:00,
2013-03-04 13:12:00,33.0,-99.9,-100.00,NE,37,14.0,17.0,-999,-99.99,,,-99.99,,2013-03-04 19:12:00,
2013-03-04 13:22:00,33.0,-99.9,-100.00,NE,37,14.0,17.0,-999,-99.99,,,-99.99,,2013-03-04 19:22:00,
2013-03-04 13:32:00,33.0,-99.9,-100.00,NE,37,14.0,17.0,-999,-99.99,,,-99.99,,2013-03-04 19:32:00,
2013-03-04 13:40:00,30.0,-99.9,-100.00,NE,48,19.0,23.0,-999,-99.99,,,-99.99,,2013-03-04 19:40:00,
2013-03-04 14:12:00,30.0,-99.9,-100.00,NE,48,19.0,23.0,-999,-99.99,,,-99.99,,2013-03-04 20:12:00,
2013-03-04 14:22:00,30.0,-99.9,-100.00,NE,48,19.0,23.0,-999,-99.99,,,-99.99,,2013-03-04 20:22:00,
2013-03-04 14:33:00,30.0,-99.9,-100.00,NE,48,19.0,23.0,-999,-99.99,,,-99.99,,2013-03-04 20:33:00,
2013-03-04 14:40:00,30.0,-99.9,-100.00,NE,49,21.0,25.0,-999,-99.99,,,-99.99,,2013-03-04 20:40:00,
2013-03-04 15:12:00,30.0,-99.9,-100.00,NE,49,21.0,25.0,-999,-99.99,,,-99.99,,2013-03-04 21:12:00,
2013-03-04 15:22:00,30.0,-99.9,-100.00,NE,49,21.0,25.0,-999,-99.99,,,-99.99,,2013-03-04 21:22:00,
2013-03-04 15:33:00,30.0,-99.9,-100.00,NE,49,21.0,25.0,-999,-99.99,,,-99.99,,2013-03-04 21:33:00,
2013-03-04 15:40:00,30.0,-99.9,-100.00,NE,53,19.0,24.0,-999,-99.99,,,-99.99,,2013-03-04 21:40:00,
2013-03-04 16:12:00,30.0,-99.9,-100.00,NE,53,19.0,24.0,-999,-99.99,,,-99.99,,2013-03-04 22:12:00,
2013-03-04 16:22:00,30.0,-99.9,-100.00,NE,53,19.0,24.0,-999,-99.99,,,-99.99,,2013-03-04 22:22:00,
2013-03-04 16:32:00,30.0,-99.9,-100.00,NE,53,19.0,24.0,-999,-99.99,,,-99.99,,2013-03-04 22:32:00,
2013-03-04 16:40:00,31.0,-99.9,-100.00,ENE,58,20.0,23.0,-999,-99.99,,,-99.99,,2013-03-04 22:40:00,
2013-03-04 17:12:00,31.0,-99.9,-100.00,ENE,58,20.0,23.0,-999,-99.99,,,-99.99,,2013-03-04 23:12:00,
2013-03-04 17:22:00,31.0,-99.9,-100.00,ENE,58,20.0,23.0,-999,-99.99,,,-99.99,,2013-03-04 23:22:00,
2013-03-04 17:32:00,31.0,-99.9,-100.00,ENE,58,20.0,23.0,-999,-99.99,,,-99.99,,2013-03-04 23:32:00,
2013-03-04 17:40:00,30.0,-99.9,-100.00,ENE,64,13.0,19.0,-999,-99.99,,,-99.99,,2013-03-04 23:40:00,
2013-03-04 18:12:00,30.0,-99.9,-100.00,ENE,64,13.0,19.0,-999,-99.99,,,-99.99,,2013-03-05 00:12:00,
2013-03-04 18:22:00,30.0,-99.9,-100.00,ENE,64,13.0,19.0,-999,-99.99,,,-99.99,,2013-03-05 00:22:00,
2013-03-04 18:33:00,30.0,-99.9,-100.00,ENE,64,13.0,19.0,-999,-99.99,,,-99.99,,2013-03-05 00:33:00,
2013-03-04 18:40:00,30.0,-99.9,-100.00,ENE,69,11.0,14.0,-999,-99.99,,,-99.99,,2013-03-05 00:40:00,
2013-03-04 19:12:00,30.0,-99.9,-100.00,ENE,69,11.0,14.0,-999,-99.99,,,-99.99,,2013-03-05 01:12:00,
2013-03-04 19:22:00,30.0,-99.9,-100.00,ENE,69,11.0,14.0,-999,-99.99,,,-99.99,,2013-03-05 01:22:00,
2013-03-04 19:33:00,30.0,-99.9,-100.00,ENE,69,11.0,14.0,-999,-99.99,,,-99.99,,2013-03-05 01:33:00,
2013-03-04 19:40:00,30.0,-99.9,-100.00,ENE,73,6.0,9.0,-999,-99.99,,,-99.99,,2013-03-05 01:40:00,
2013-03-04 20:12:00,30.0,-99.9,-100.00,ENE,73,6.0,9.0,-999,-99.99,,,-99.99,,2013-03-05 02:12:00,
2013-03-04 20:22:00,30.0,-99.9,-100.00,ENE,73,6.0,9.0,-999,-99.99,,,-99.99,,2013-03-05 02:22:00,
2013-03-04 20:33:00,30.0,-99.9,-100.00,ENE,73,6.0,9.0,-999,-99.99,,,-99.99,,2013-03-05 02:33:00,
2013-03-04 20:40:00,30.0,-99.9,-100.00,ENE,62,4.0,6.0,-999,-99.99,,,-99.99,,2013-03-05 02:40:00,
2013-03-04 21:12:00,30.0,-99.9,-100.00,ENE,62,4.0,6.0,-999,-99.99,,,-99.99,,2013-03-05 03:12:00,
2013-03-04 21:22:00,30.0,-99.9,-100.00,ENE,62,4.0,6.0,-999,-99.99,,,-99.99,,2013-03-05 03:22:00,
2013-03-04 21:32:00,30.0,-99.9,-100.00,ENE,62,4.0,6.0,-999,-99.99,,,-99.99,,2013-03-05 03:32:00,
2013-03-04 21:40:00,29.0,-99.9,-100.00,NNE,12,0.0,3.0,-999,-99.99,,,-99.99,,2013-03-05 03:40:00,
2013-03-04 22:12:00,29.0,-99.9,-100.00,NNE,12,0.0,3.0,-999,-99.99,,,-99.99,,2013-03-05 04:12:00,
2013-03-04 22:22:00,29.0,-99.9,-100.00,NNE,12,0.0,3.0,-999,-99.99,,,-99.99,,2013-03-05 04:22:00,
2013-03-04 22:32:00,29.0,-99.9,-100.00,NNE,12,0.0,3.0,-999,-99.99,,,-99.99,,2013-03-05 04:32:00,
2013-03-04 22:40:00,30.0,-99.9,-100.00,ENE,70,5.0,10.0,-999,-99.99,,,-99.99,,2013-03-05 04:40:00,
2013-03-04 23:12:00,30.0,-99.9,-100.00,ENE,70,5.0,10.0,-999,-99.99,,,-99.99,,2013-03-05 05:12:00,
2013-03-04 23:23:00,30.0,-99.9,-100.00,ENE,70,5.0,10.0,-999,-99.99,,,-99.99,,2013-03-05 05:23:00,
2013-03-04 23:32:00,30.0,-99.9,-100.00,ENE,70,5.0,10.0,-999,-99.99,,,-99.99,,2013-03-05 05:32:00,
2013-03-04 23:40:00,28.0,-99.9,-100.00,ENE,68,7.0,9.0,-999,-99.99,,,-99.99,,2013-03-05 05:40:00,